EW6158 Weather Reports


time (UTC)temp
C
wind
direction
speed
KPH
gust
KPH
rain 1hr
cm
rain 24hr
cm
rain mn
cm
humidity
%
barometer
mb
20260506014544 10 346 4.8 14.5 0.00 0.00 0.00 82 1009.9
20260506013039 10 54 3.2 12.9 0.00 0.00 0.00 82 1009.6
20260506011538 10 30 6.4 17.7 0.00 0.00 0.00 82 1009.6
20260506010036 10 13 4.8 14.5 0.00 0.00 0.00 81 1009.3
20260506004532 10 20 3.2 16.1 0.00 0.00 0.00 81 1008.9
20260506003035 10 351 6.4 19.3 0.00 0.00 0.00 80 1008.3
20260506001534 10 349 6.4 22.5 0.00 0.00 0.00 79 1008.3
20260506000026 10 49 6.4 14.5 0.00 0.00 0.00 78 1008.2
20260505234528 11 30 8.0 17.7 0.00 0.00 0.00 77 1008.2
20260505233021 11 360 4.8 16.1 0.00 0.00 0.00 77 1007.9
20260505231519 11 18 4.8 12.9 0.00 0.00 0.00 76 1008.2
20260505230033 11 57 3.2 9.7 0.00 0.00 0.00 75 1008.2
20260505224513 11 360 8.0 24.1 0.00 0.00 0.00 75 1007.6
20260505223010 11 36 6.4 12.9 0.00 0.00 0.00 75 1007.6
20260505221508 11 51 4.8 22.5 0.00 0.00 0.00 75 1007.5
20260505220005 11 45 8.0 24.1 0.00 0.00 0.00 75 1007.5
20260505214505 12 350 4.8 16.1 0.00 0.00 0.00 74 1006.9
20260505213001 12 30 9.7 22.5 0.00 0.00 0.00 73 1006.7
20260505211559 12 29 6.4 16.1 0.00 0.00 0.00 74 1006.6
20260505210059 12 46 8.0 20.9 0.00 0.00 0.00 74 1005.9
20260505204558 12 337 4.8 19.3 0.00 0.00 0.00 75 1005.9
20260505203104 12 325 6.4 17.7 0.00 0.00 0.00 76 1006.6
20260505201554 12 321 4.8 12.9 0.00 0.00 0.00 76 1006.1
20260505200053 12 38 9.7 22.5 0.00 0.00 0.00 78 1005.9
20260505194551 12 20 6.4 16.1 0.00 0.00 0.00 79 1006.0
20260505193049 12 339 6.4 19.3 0.00 0.00 0.00 79 1006.1
20260505191606 12 23 6.4 19.3 0.00 0.00 0.00 80 1005.8
20260505190047 12 3 11.3 22.5 0.00 0.00 0.00 80 1005.5
20260505184541 13 29 8.0 20.9 0.00 0.00 0.00 80 1005.7
20260505183041 13 34 8.0 19.3 0.00 0.00 0.00 79 1005.5
20260505181536 13 32 9.7 24.1 0.00 0.00 0.00 78 1005.4
20260505174551 13 11 4.8 14.5 0.00 0.00 0.00 80 1004.8
20260505173037 13 315 8.0 20.9 0.00 0.00 0.00 80 1004.5
20260505171535 13 359 6.4 27.4 0.00 0.00 0.00 81 1004.4
20260505170032 13 4 8.0 20.9 0.00 0.00 0.00 82 1004.0
20260505164530 13 1 9.7 20.9 0.00 0.00 0.00 82 1003.7
20260505163029 14 343 9.7 17.7 0.00 0.00 0.00 82 1003.4
20260505161524 14 360 6.4 25.7 0.00 0.00 0.00 83 1003.0
20260505153013 16 54 8.0 25.7 0.00 0.00 0.00 82 1001.6
20260505151510 17 344 9.7 27.4 0.00 0.00 0.00 80 1001.1
20260505124530 20 338 0.0 0.0 0.00 0.00 0.00 82 999.0
20260505123033 20 338 0.0 0.0 0.00 0.00 0.00 81 998.8
20260505121526 20 340 0.0 6.4 0.00 0.00 0.00 79 998.4
20260505120025 21 278 3.2 17.7 0.00 0.00 0.00 78 997.7
20260505114521 21 221 4.8 12.9 0.00 0.00 0.00 77 997.4
20260505113022 21 219 4.8 19.3 0.00 0.00 0.00 77 997.0
20260505111521 21 218 4.8 19.3 0.00 0.00 0.00 77 996.6
20260505101527 21 198 8.0 22.5 0.00 0.00 0.00 75 996.3
20260505100025 22 165 8.0 22.5 0.00 0.00 0.00 75 996.4
20260505094507 22 195 11.3 20.9 0.00 0.00 0.00 75 996.4
20260505093005 22 186 9.7 20.9 0.00 0.00 0.00 75 996.3
20260505091503 22 219 8.0 29.0 0.00 0.00 0.00 75 996.3
20260505090001 22 223 11.3 22.5 0.00 0.00 0.00 75 996.5
20260505084607 22 241 9.7 25.7 0.00 0.00 0.00 75 996.6
20260505083105 22 148 9.7 25.7 0.00 0.00 0.00 75 996.6
20260505081619 22 220 9.7 24.1 0.00 0.00 0.00 75 996.9
20260505074552 22 233 9.7 20.9 0.00 0.00 0.00 75 997.2
20260505073050 22 210 4.8 14.5 0.00 0.00 0.00 75 997.5
20260505071553 22 211 11.3 24.1 0.00 0.00 0.00 75 997.6
20260505070045 22 243 14.5 29.0 0.00 0.00 0.00 75 997.7
20260505064541 22 143 11.3 25.7 0.00 0.00 0.00 74 997.9
20260505063046 22 238 11.3 24.1 0.00 0.00 0.00 74 998.0
20260505061540 22 231 6.4 24.1 0.00 0.00 0.00 74 998.1
20260505060034 22 227 11.3 20.9 0.00 0.00 0.00 73 998.2
20260505054534 22 197 12.9 25.7 0.00 0.00 0.00 73 998.4
20260505053037 22 230 8.0 24.1 0.00 0.00 0.00 72 998.4
20260505051537 22 216 11.3 25.7 0.00 0.00 0.00 71 998.6
20260505041523 23 169 11.3 25.7 0.00 0.00 0.00 70 998.9
20260505040020 23 158 9.7 27.4 0.00 0.00 0.00 70 999.1
20260505034518 23 207 9.7 22.5 0.00 0.00 0.00 69 999.1
20260505033018 23 187 11.3 25.7 0.00 0.00 0.00 68 999.2
20260505031517 23 153 9.7 24.1 0.00 0.00 0.00 68 998.9
20260505030017 23 238 9.7 25.7 0.00 0.00 0.00 67 998.7
20260505024515 24 240 11.3 22.5 0.00 0.00 0.00 67 998.6
20260505023020 24 257 9.7 17.7 0.00 0.00 0.00 66 998.8
20260505021514 24 196 11.3 22.5 0.00 0.00 0.00 65 998.7
20260505020013 25 250 6.4 17.7 0.00 0.00 0.00 64 998.6